Theta_e
311 311 311 311 309 307 305 304 303 303 302 301 302 300 300 297 297 300 298 299 299 300 299 300 301 301 303 304 305 305 304 302 303 304 303 303 302 302 302 302 303 304
310 310 307 306 304 303 303 303 302 302 300 300 299 299 297 297 297 298 298 298 297 297 298 298 298 298 298 299 299 299 298 298 298 298 298 297 296 296 297 298 299 301
307 306 306 305 305 303 302 300 300 300 300 298 297 296 296 295 296 296 296 296 296 295 295 295 295 295 295 294 295 294 294 295 294 293 293 292 293 293 293 295 295 296
304 304 304 304 304 303 301 300 298 298 297 297 295 295 296 294 294 294 294 293 294 293 293 293 292 292 292 291 291 289 289 290 290 290 290 288 289 289 291 292 292 292
304 304 303 302 301 300 300 298 296 296 295 294 293 293 294 293 292 291 290 289 290 289 289 289 289 289 288 288 288 288 286 286 286 285 286 286 285 286 288 289 289 289
302 301 300 299 298 298 297 296 295 295 294 293 292 292 291 290 289 289 288 288 287 288 287 286 287 285 285 285 285 284 284 285 284 285 286 284 285 284 287 287 287 287
299 298 296 296 295 295 294 293 293 292 292 291 290 289 288 289 288 288 288 287 287 286 286 286 286 285 284 283 284 284 284 285 284 284 286 284 283 285 284 284 284 286
295 294 293 293 293 292 291 290 290 289 289 289 289 286 287 288 288 286 285 286 286 286 285 285 284 284 283 283 285 285 285 283 284 284 284 284 283 285 285 284 284 285
292 291 291 291 290 290 289 289 288 287 288 289 288 286 285 286 286 285 285 285 285 284 285 284 284 283 283 284 283 283 285 284 283 283 284 285 285 285 285 284 284 284
290 290 290 290 289 289 288 287 287 287 286 287 286 286 286 285 284 284 285 285 285 285 285 284 285 284 284 283 285 284 285 285 284 284 284 284 284 285 284 284 284 284
288 289 289 288 288 287 287 286 286 286 285 286 285 285 284 284 283 282 284 285 286 285 284 284 284 284 285 285 284 283 284 284 285 284 284 283 283 283 284 284 283 283
287 287 287 287 287 287 286 286 286 285 284 284 284 284 283 283 284 283 284 284 283 283 283 283 283 283 283 284 284 284 283 283 283 283 283 283 282 283 283 282 282 282
286 286 286 286 286 286 285 285 284 284 284 284 283 284 284 284 283 283 282 283 283 283 283 283 284 283 283 283 283 282 282 282 281 281 282 281 281 282 282 281 281 282
285 285 285 285 285 284 284 284 284 284 283 283 283 284 283 283 283 283 281 282 282 282 282 282 282 282 282 282 282 282 282 281 281 281 281 281 280 281 280 280 281 281
284 284 284 284 284 284 283 283 283 283 283 283 283 283 283 282 281 282 282 282 282 281 281 282 282 283 282 282 282 282 282 281 281 280 280 280 280 280 280 281 280 280
284 283 283 283 283 283 283 283 283 282 283 282 282 282 282 281 281 281 281 281 281 280 280 282 282 282 284 288 289 284 282 282 282 281 280 280 280 280 280 280 280 280
283 283 283 283 283 282 282 282 282 282 282 282 281 281 281 281 281 280 280 280 280 280 280 281 282 283 287 289 289 289 284 281 281 281 280 280 279 279 279 279 279 279
283 283 282 282 282 282 282 281 281 281 281 281 281 280 280 280 280 279 280 279 280 279 280 280 280 285 287 288 288 288 288 284 281 281 281 280 279 279 279 279 279 279
282 282 282 282 281 281 281 281 281 280 280 280 280 279 279 279 279 279 279 279 279 279 279 279 279 285 287 287 287 287 288 286 281 280 279 279 279 278 278 278 278 279
282 282 282 281 281 280 280 280 280 280 279 279 279 278 278 278 278 278 278 278 279 278 278 278 278 284 286 286 286 287 287 285 279 279 279 278 278 278 278 278 278 278
282 281 281 280 280 280 279 279 279 279 279 278 278 278 278 278 277 277 277 276 277 276 278 278 279 284 284 285 285 286 286 283 278 279 278 277 278 277 277 278 278 278
281 281 280 280 279 279 279 278 278 278 278 278 277 277 277 277 277 277 277 276 277 278 278 277 278 283 283 284 284 285 285 278 277 277 277 277 277 277 277 277 278 278
281 280 280 279 278 278 278 277 277 277 277 276 277 277 277 277 276 276 277 278 279 279 278 278 278 280 282 283 283 284 283 276 276 275 276 276 276 276 277 277 277 278
280 280 279 278 278 277 277 277 277 277 277 276 277 276 277 276 276 277 278 278 278 278 278 277 278 279 281 282 282 283 282 277 276 275 275 275 275 276 277 277 277 278
279 279 278 277 277 277 277 277 276 276 276 276 276 275 276 276 277 277 277 278 278 278 278 277 277 277 280 281 282 282 281 276 275 274 274 275 276 277 276 277 277 278
278 278 277 277 277 276 276 276 276 275 275 274 274 275 275 276 276 277 276 276 277 277 277 277 276 275 276 280 280 281 282 278 274 273 274 276 277 276 275 276 276 276
Wind_Speed
7 7 8 7 6 6 7 6 4 6 5 5 6 4 5 3 3 7 5 5 5 5 5 5 4 5 5 5 5 5 5 4 5 4 4 4 4 5 5 5 5 5
7 8 7 7 6 5 5 6 6 8 6 5 5 5 4 5 4 5 5 6 5 5 4 5 5 4 4 5 4 6 5 5 5 3 4 4 3 4 3 3 3 3
8 8 8 8 8 8 7 6 7 6 7 5 5 4 4 4 5 4 5 5 6 5 5 4 5 5 5 4 5 5 4 4 4 3 4 3 3 3 1 1 1 1
7 7 8 8 9 9 7 8 7 7 6 6 4 4 5 4 5 6 5 5 5 5 4 5 5 4 4 4 5 5 4 4 2 3 4 3 3 2 3 2 2 2
8 8 7 8 8 8 7 8 7 6 7 6 5 5 6 6 6 6 5 5 5 5 5 5 4 4 4 4 4 5 4 4 3 3 3 3 3 3 3 3 3 3
7 7 8 8 7 8 8 8 7 7 7 6 6 5 5 6 6 6 5 6 4 5 5 4 4 4 4 4 4 4 3 4 3 4 4 4 3 3 2 3 3 4
8 8 8 8 8 8 9 7 6 7 6 6 5 6 5 6 6 5 5 5 5 5 4 4 4 4 3 4 4 4 3 3 4 5 4 4 3 5 3 3 4 5
8 7 8 8 9 8 8 7 6 7 6 6 7 5 6 6 6 5 5 5 5 4 4 4 4 4 3 4 5 5 5 3 4 5 4 4 4 4 4 4 4 5
8 8 8 9 10 8 8 7 6 6 6 8 7 6 4 5 6 5 5 4 5 4 4 4 4 4 4 4 4 4 4 4 3 3 3 4 5 5 5 5 5 5
9 8 9 9 9 7 9 7 7 6 6 8 7 6 7 5 4 4 4 4 5 4 5 4 5 4 4 4 4 3 3 3 3 3 3 4 4 5 6 5 6 7
9 8 9 9 9 8 8 8 7 7 6 7 7 7 5 6 4 4 5 5 6 5 4 5 4 4 5 5 4 3 4 4 4 4 4 4 4 4 5 5 5 5
8 8 9 9 9 8 9 8 7 7 7 5 6 7 5 4 5 4 4 5 4 4 4 4 4 4 4 4 4 5 5 4 4 4 4 4 4 4 4 4 4 5
8 8 9 9 8 8 7 7 7 7 7 6 5 6 6 5 4 5 4 4 4 4 4 4 4 4 4 4 4 4 3 3 3 3 4 4 4 4 4 4 4 5
7 7 8 8 7 7 7 7 7 7 6 5 5 7 6 5 5 5 4 4 4 4 4 4 4 4 4 4 4 3 3 3 3 4 4 4 4 4 4 4 4 5
7 6 6 7 8 8 8 7 7 6 6 6 6 6 5 4 4 4 4 5 4 4 4 4 4 4 4 4 4 4 2 3 3 4 4 5 5 5 5 4 4 4
7 7 7 7 8 8 7 7 7 7 7 7 6 5 5 4 5 4 4 4 4 4 4 4 4 3 6 9 7 4 4 4 4 4 4 4 5 6 6 5 5 5
8 8 7 8 7 7 6 7 7 6 7 6 6 5 5 5 5 5 4 3 3 4 4 4 4 5 10 9 10 10 5 4 4 5 4 5 4 5 6 7 5 4
8 8 8 8 7 7 7 7 7 7 6 6 6 5 5 5 6 4 3 3 3 3 4 4 4 7 10 11 11 13 10 5 4 4 5 5 5 5 5 5 6 5
8 9 9 8 7 7 7 7 7 6 6 5 6 4 5 6 4 4 4 3 4 5 5 5 4 8 12 13 13 12 13 8 5 4 5 5 5 5 6 6 7 7
8 9 9 8 7 7 6 6 6 6 5 4 5 5 6 4 4 4 4 4 4 4 4 4 4 8 12 13 12 13 13 10 4 5 4 5 5 6 6 6 7 8
9 9 10 8 8 7 6 6 6 5 5 5 6 5 5 5 4 4 3 3 4 3 3 4 4 11 12 13 13 13 14 9 4 4 4 4 4 4 5 6 7 7
10 10 9 8 8 7 8 7 5 5 6 4 5 5 4 4 3 3 3 4 3 3 3 4 5 11 12 13 13 13 12 5 4 4 4 5 5 4 5 6 6 7
9 10 10 8 7 8 7 7 7 5 4 3 7 6 5 5 3 3 2 3 3 3 4 3 4 8 11 12 12 14 8 4 4 4 4 5 5 4 5 5 5 7
8 9 10 9 8 8 8 6 5 4 4 3 6 6 5 4 3 3 3 3 3 4 4 3 4 7 12 12 13 14 10 5 5 5 6 6 5 4 5 5 6 11
8 8 9 9 8 7 7 8 6 6 5 5 5 5 5 4 4 4 4 4 3 4 5 4 4 6 11 13 13 13 9 4 6 6 6 6 7 6 4 4 6 8
6 8 7 8 9 7 6 6 5 6 6 6 5 5 5 4 4 4 4 3 3 4 4 4 4 5 7 13 12 12 13 7 5 6 7 8 7 9 10 8 5 5
Wind_Direction
144 144 143 137 132 134 136 125 121 110 106 113 111 116 110 112 71 78 79 76 77 73 59 57 55 58 58 59 59 66 60 72 70 60 48 49 39 29 28 19 14 7
134 126 117 113 107 99 96 114 123 118 113 108 110 104 84 86 63 83 87 85 75 75 69 67 63 65 63 63 62 70 62 63 56 39 77 66 57 51 38 23 15 359
123 123 124 123 122 113 108 97 102 103 109 102 97 105 109 94 93 80 85 88 81 72 70 72 69 60 65 69 71 72 73 65 52 13 63 62 66 64 29 44 1 341
107 116 119 117 115 113 111 105 97 100 103 106 111 113 107 103 94 86 78 78 87 77 70 66 68 63 65 67 78 73 81 79 76 67 57 26 23 31 339 339 317 309
116 110 106 101 100 109 111 112 113 113 111 116 107 102 102 99 92 88 88 79 83 81 77 78 72 72 76 72 80 79 58 68 38 67 77 43 333 8 321 356 319 303
94 102 104 110 117 118 112 111 119 116 116 107 112 105 99 97 97 98 95 93 84 89 80 73 71 57 66 75 70 73 69 48 20 50 40 18 335 329 315 328 310 303
112 109 107 109 106 107 108 110 110 110 111 125 111 96 106 97 97 98 98 99 94 83 89 87 82 66 56 78 69 60 42 51 28 36 20 341 345 321 311 302 294 293
113 110 113 110 108 107 109 114 118 119 129 111 100 104 101 105 103 105 101 101 101 102 94 85 77 75 55 67 57 37 19 27 29 25 4 323 333 317 318 321 308 303
116 116 116 114 113 115 117 122 122 118 116 111 109 106 93 105 114 110 114 113 101 94 85 69 58 54 43 57 58 58 28 0 14 19 335 327 332 325 326 328 325 312
117 121 117 121 120 127 124 124 120 115 116 109 114 111 105 98 105 118 112 102 92 74 66 60 46 35 36 44 46 41 22 356 348 354 339 326 321 320 323 329 320 321
124 126 126 127 128 130 127 125 120 119 114 116 113 103 109 110 92 92 89 78 75 70 56 49 43 39 34 20 18 25 24 6 353 346 334 322 310 302 302 306 309 305
131 132 134 136 134 131 128 126 123 117 113 102 112 113 105 93 98 71 81 79 69 62 60 47 44 44 43 35 19 14 11 1 344 327 317 315 310 303 301 301 299 300
141 142 140 138 133 130 126 120 114 113 108 110 107 106 100 91 73 75 45 70 55 55 50 43 41 40 38 29 19 10 358 339 323 315 306 307 296 296 298 297 293 294
143 142 137 132 127 123 118 114 112 108 107 106 100 87 82 75 70 69 51 61 48 56 45 51 49 45 38 25 13 354 344 330 324 323 321 315 308 303 299 296 297 298
138 133 128 125 123 118 116 116 114 113 105 97 90 87 80 79 72 62 56 43 36 43 43 45 61 49 38 18 12 357 352 335 328 326 322 319 316 315 315 317 316 307
134 130 128 123 118 118 119 118 112 104 98 91 86 85 80 76 72 66 66 58 49 39 49 59 50 47 12 15 12 6 352 346 343 336 330 326 327 325 324 324 319 312
132 130 127 121 122 118 117 110 104 101 95 90 83 76 75 66 67 58 50 43 55 48 44 41 32 18 7 7 6 3 4 354 346 333 327 327 324 321 319 318 311 302
135 130 124 125 123 119 113 108 105 101 98 97 92 83 74 71 63 65 58 47 44 44 46 34 24 0 5 5 2 1 359 2 359 339 330 327 322 318 311 310 312 313
137 131 127 124 120 117 114 109 109 105 105 102 97 100 88 75 67 60 45 38 46 38 30 18 15 353 4 2 1 1 1 14 0 341 334 325 322 318 316 319 320 318
137 132 126 124 121 116 116 115 112 112 110 107 104 90 89 89 73 64 48 38 33 33 22 15 9 355 3 0 1 1 2 12 351 340 331 322 322 320 320 321 319 320
139 134 129 127 124 122 118 115 116 117 106 102 100 99 98 93 83 70 46 42 28 26 29 19 5 2 2 1 2 360 1 10 341 332 323 319 318 317 316 313 312 311
142 136 132 132 133 131 127 124 119 120 117 117 103 94 87 91 71 71 54 31 23 26 28 18 3 1 2 2 0 357 0 357 341 332 328 326 326 322 315 310 309 316
146 139 137 137 138 132 129 130 128 122 111 114 99 94 88 77 78 64 60 51 30 29 26 14 7 354 -0 1 -0 356 357 346 334 332 333 334 326 318 311 312 317 322
147 143 140 142 143 140 136 131 123 111 109 104 108 112 97 94 84 62 43 41 35 22 23 15 358 350 360 0 360 356 356 345 338 345 340 328 320 307 302 309 311 317
142 141 141 143 141 139 138 132 131 125 116 101 101 99 95 90 72 71 49 32 28 19 13 22 9 356 351 359 356 355 353 355 356 349 331 320 315 318 316 311 317 322
140 141 141 141 138 131 127 123 123 110 104 105 94 91 90 76 70 72 72 39 24 24 24 19 16 353 344 355 354 355 358 4 1 336 324 321 328 332 327 327 326 319